Terminal Aerodrome Forecast
Issued by NWS Wilmington, NC

Home | Current Version | Previous Version | Text Only | Print | Product List | Glossary On
Versions: 1 2 3 4 5 6 7 8 9 10 11 12 13 14 15 16 17 18
000
FTUS42 KILM 291125
TAFILM
TAF
KILM 291125Z 2912/3012 10008KT P6SM SCT030 SCT080
     FM300000 09003KT P6SM SCT020
     FM300700 VRB02KT 6SM BR BKN015=

USA.gov is the U.S. government's official web portal to all federal, state and local government web resources and services.